Location: Sternwarte ZA, Rosenfeld-Brittheim
(48.2889°N, 8.6789°E)
Time: 22:39:45
(UTC+02:00)

ISS - Pass Details

Date: 14 July 2018
Orbit: 402 x 408 km, 51.6° (Epoch: 22 July)

Event Time Altitude Azimuth Distance (km) Brightness Sun altitude
Exits shadow 01:07:31 10° 86° (E) 1,452 -1.0 -19.8°
Drops below altitude 10° 01:07:35 10° 85° (E) 1,469 -1.0 -19.8°
Sets 01:09:53 0° 72° (ENE) 2,335 0.2 -19.8°
